Regional Weather Roundup
Issued by NWS

Home | Current Version | Previous Version | Graphics & Text | Print | Product List | Glossary On
Versions: 1 2 3 4 5 6 7 8 9 10 11 12 13 14 15 16 17 18 19 20 21 22 23 24 25 26 27 28 29 30 31 32 33 34 35 36 37 38 39 40 41 42 43 44 45 46 47 48 49 50
000
ASUS43 KFSD 300010
RWRSD

WEATHER ROUNDUP FOR SOUTH DAKOTA
NATIONAL WEATHER SERVICE SIOUX FALLS SD
600 PM CST THU JAN 29 2015

NOTE: "FAIR" INDICATES FEW OR NO CLOUDS BELOW 12,000 FEET WITH NO
SIGNIFICANT WEATHER AND/OR OBSTRUCTIONS TO VISIBILITY.


SDZ001>005-009-010-012>017-300100-
NORTHWEST AND NORTH CENTRAL SOUTH DAKOTA

CITY           SKY/WX    TMP DP  RH WIND       PRES   REMARKS
BUFFALO          N/A     38   8  29 SE6       30.30F
FAITH            N/A     37  13  37 S3        30.40R
MOBRIDGE       CLEAR     29  20  69 NE7       30.44R WCI  22
$$

SDZ012>016-024>037-041>051-057-063-072>074-300100-
SOUTHWEST AND SOUTH CENTRAL SOUTH DAKOTA

CITY           SKY/WX    TMP DP  RH WIND       PRES   REMARKS
RAPID CTY ARPT CLEAR     36  15  42 E5        30.39S
PIERRE         CLEAR     32  20  61 CALM      30.45S
CUSTER         CLEAR     33  11  39 VRB5      30.34S WCI  29
ELLSWORTH AFB  CLEAR     39  14  36 E6        30.38S
PHILIP         CLEAR     34  18  52 NE7       30.43S WCI  28
PINE RIDGE     CLEAR     36  12  37 CALM      30.41F
WINNER         FAIR      36  20  52 NW6       30.46S
$$

SDZ004>011-016>023-039-040-300100-
NORTHEAST SOUTH DAKOTA

CITY           SKY/WX    TMP DP  RH WIND       PRES   REMARKS
ABERDEEN       CLOUDY    24  16  71 N13       30.52R WCI  12
WATERTOWN      CLOUDY    21  15  78 N15       30.46R WCI   8
SISSETON         N/A     20  14  77 N13       30.51R WCI   7
$$

SDZ017-020-022-023-036>040-048>070-300100-
SOUTHEAST SOUTH DAKOTA

CITY           SKY/WX    TMP DP  RH WIND       PRES   REMARKS
SIOUX FALLS    CLOUDY    25  18  74 N17       30.48R WCI  12
HURON          CLOUDY    27  19  72 N13       30.51R WCI  16
CHAMBERLAIN    CLEAR     30  22  70 N3        30.48R
MITCHELL       PTCLDY    27  20  75 N9        30.52R WCI  18
YANKTON        MOCLDY    30  19  64 N12       30.51R WCI  21
$$

ABBREVIATIONS USED IN REMARKS
   TC - TEMPERATURE IN CELSIUS
  WCI - WIND CHILL INDEX
   HX - HEAT INDEX
  VSB - VISIBILITY




USA.gov is the U.S. government's official web portal to all federal, state and local government web resources and services.